When you browse on this site, cookies collect data to enhance your experience and personalize the content and advertising you see.
Visit our Privacy Policy to learn more. By continuing to use the site, you agree to this use of cookies and data.
  • Em Portugal
  • Lista de países
  • Para 7 dias
  • Temperatura da água
  • Mapas de satélite
  • Mapa do tempo
  • Widgets de tempo
  • user-avatar
    Iniciar Sessão

    Previsão horária em Czerna

    Hoje, 20 Março, Quarta-feira

    Tempo Temperatura Precipitação Vento Pressão Humidade
    00:00 +1°C° 0 mm 2 m/s 753 mmHg 85%
    01:00 +1°C° 0 mm 2 m/s 754 mmHg 87%
    02:00 +1°C° 0 mm 2 m/s 754 mmHg 88%
    03:00 -1°C° 0 mm 2 m/s 754 mmHg 89%
    04:00 -1°C° 0 mm 2 m/s 754 mmHg 90%
    05:00 +1°C° 0 mm 2 m/s 755 mmHg 89%
    06:00 +1°C° 0 mm 2 m/s 755 mmHg 88%
    07:00 +2°C° 0 mm 2 m/s 755 mmHg 85%
    08:00 +3°C° 0 mm 2 m/s 755 mmHg 76%
    09:00 +4°C° 0 mm 3 m/s 756 mmHg 67%
    10:00 +7°C° 0 mm 3 m/s 756 mmHg 58%
    11:00 +8°C° 0 mm 3 m/s 756 mmHg 54%
    12:00 +9°C° 0 mm 3 m/s 756 mmHg 50%
    13:00 +9°C° 0 mm 3 m/s 756 mmHg 46%
    14:00 +10°C° 0 mm 3 m/s 756 mmHg 46%
    15:00 +10°C° 0 mm 3 m/s 755 mmHg 45%
    16:00 +10°C° 0 mm 3 m/s 755 mmHg 45%
    17:00 +8°C° 0 mm 2 m/s 755 mmHg 51%
    18:00 +7°C° 0 mm 2 m/s 755 mmHg 56%
    19:00 +5°C° 0 mm 2 m/s 755 mmHg 62%
    20:00 +5°C° 0 mm 2 m/s 756 mmHg 63%
    21:00 +5°C° 0 mm 2 m/s 756 mmHg 64%
    22:00 +4°C° 0 mm 2 m/s 756 mmHg 65%
    23:00 +4°C° 0 mm 2 m/s 756 mmHg 65%

    Amanhã, 21 Março, Quinta-feira

    Tempo Temperatura Precipitação Vento Pressão Humidade
    00:00 +3°C° 0 mm 3 m/s 756 mmHg 65%
    01:00 +3°C° 0 mm 3 m/s 756 mmHg 65%
    02:00 +3°C° 0 mm 3 m/s 756 mmHg 66%
    03:00 +3°C° 0 mm 3 m/s 756 mmHg 68%
    04:00 +3°C° 0 mm 3 m/s 756 mmHg 69%
    05:00 +3°C° 0 mm 3 m/s 756 mmHg 70%
    06:00 +3°C° 0 mm 3 m/s 756 mmHg 72%
    07:00 +4°C° 0 mm 2 m/s 757 mmHg 73%
    08:00 +5°C° 0 mm 3 m/s 757 mmHg 71%
    09:00 +8°C° 0 mm 3 m/s 757 mmHg 69%
    10:00 +10°C° 0 mm 3 m/s 757 mmHg 67%
    11:00 +11°C° 0 mm 3 m/s 757 mmHg 64%
    12:00 +12°C° 0 mm 3 m/s 757 mmHg 61%
    13:00 +14°C° 0 mm 3 m/s 757 mmHg 59%
    14:00 +14°C° 0 mm 3 m/s 756 mmHg 59%
    15:00 +14°C° 0 mm 3 m/s 756 mmHg 59%
    16:00 +15°C° 0 mm 2 m/s 755 mmHg 59%
    17:00 +14°C° 0 mm 2 m/s 755 mmHg 67%
    18:00 +12°C° 0 mm 1 m/s 755 mmHg 74%
    19:00 +10°C° 0 mm 1 m/s 755 mmHg 82%
    20:00 +10°C° 0 mm 1 m/s 755 mmHg 84%
    21:00 +10°C° 0 mm 1 m/s 755 mmHg 86%
    22:00 +9°C° 0 mm 1 m/s 755 mmHg 88%
    23:00 +9°C° 0 mm 1 m/s 755 mmHg 88%

    Depois de amanhã, 22 Março, Sexta-feira

    Tempo Temperatura Precipitação Vento Pressão Humidade
    00:00 +9°C° 0 mm 1 m/s 755 mmHg 89%
    01:00 +7°C° 0 mm 2 m/s 755 mmHg 89%
    02:00 +7°C° 0 mm 2 m/s 755 mmHg 89%
    03:00 +7°C° 0 mm 2 m/s 755 mmHg 89%
    04:00 +7°C° 0 mm 2 m/s 755 mmHg 89%
    05:00 +7°C° 0 mm 2 m/s 755 mmHg 87%
    06:00 +7°C° 0 mm 2 m/s 755 mmHg 86%
    07:00 +7°C° 0 mm 2 m/s 755 mmHg 85%
    08:00 +10°C° 0 mm 2 m/s 755 mmHg 77%
    09:00 +13°C° 0 mm 1 m/s 755 mmHg 68%
    10:00 +15°C° 0 mm 1 m/s 756 mmHg 60%
    11:00 +16°C° 0 mm 1 m/s 755 mmHg 57%
    12:00 +18°C° 0 mm 1 m/s 755 mmHg 53%
    13:00 +19°C° 0 mm 1 m/s 755 mmHg 49%
    14:00 +19°C° 0 mm 1 m/s 754 mmHg 49%
    15:00 +19°C° 0 mm 1 m/s 754 mmHg 48%
    16:00 +20°C° 0 mm 1 m/s 753 mmHg 47%
    17:00 +18°C° 0 mm 1 m/s 753 mmHg 53%
    18:00 +15°C° 0 mm 1 m/s 753 mmHg 60%
    19:00 +14°C° 0 mm 1 m/s 753 mmHg 66%
    20:00 +13°C° 0 mm 1 m/s 753 mmHg 68%
    21:00 +12°C° 0 mm 2 m/s 753 mmHg 70%
    22:00 +12°C° 0 mm 2 m/s 753 mmHg 72%
    23:00 +10°C° 0 mm 2 m/s 752 mmHg 73%

    23 Março, Sábado

    Tempo Temperatura Precipitação Vento Pressão Humidade
    00:00 +10°C° 0 mm 2 m/s 752 mmHg 73%
    01:00 +10°C° 0 mm 3 m/s 752 mmHg 73%
    02:00 +10°C° 0 mm 3 m/s 752 mmHg 73%
    03:00 +9°C° 0 mm 3 m/s 752 mmHg 74%
    04:00 +9°C° 0 mm 3 m/s 751 mmHg 74%
    05:00 +9°C° 0 mm 3 m/s 752 mmHg 73%
    06:00 +9°C° 0 mm 3 m/s 752 mmHg 72%
    07:00 +9°C° 0 mm 3 m/s 752 mmHg 72%
    08:00 +11°C° 0 mm 3 m/s 752 mmHg 67%
    09:00 +13°C° 0 mm 3 m/s 752 mmHg 62%
    10:00 +14°C° 0 mm 3 m/s 752 mmHg 57%
    11:00 +16°C° 0 mm 3 m/s 752 mmHg 55%
    12:00 +17°C° 0 mm 3 m/s 752 mmHg 53%
    13:00 +18°C° 0 mm 3 m/s 752 mmHg 50%
    14:00 +18°C° 0 mm 3 m/s 752 mmHg 52%
    15:00 +17°C° 0 mm 3 m/s 752 mmHg 53%
    16:00 +17°C° 0 mm 3 m/s 752 mmHg 55%
    17:00 +14°C° 0 mm 3 m/s 752 mmHg 64%
    18:00 +13°C° 0 mm 3 m/s 752 mmHg 73%
    19:00 +11°C° 0 mm 3 m/s 752 mmHg 81%
    20:00 +11°C° 0 mm 3 m/s 753 mmHg 81%
    21:00 +10°C° 0 mm 3 m/s 753 mmHg 81%
    22:00 +10°C° 0 mm 3 m/s 754 mmHg 81%
    23:00 +9°C° 0 mm 3 m/s 754 mmHg 75%

    24 Março, Domingo

    Tempo Temperatura Precipitação Vento Pressão Humidade
    00:00 +8°C° 0 mm 3 m/s 754 mmHg 68%
    01:00 +7°C° 0 mm 3 m/s 753 mmHg 62%
    02:00 +7°C° 0 mm 3 m/s 753 mmHg 60%
    03:00 +5°C° 0 mm 3 m/s 753 mmHg 57%
    04:00 +4°C° 0 mm 3 m/s 753 mmHg 55%
    05:00 +4°C° 0 mm 3 m/s 753 mmHg 57%
    06:00 +4°C° 0 mm 3 m/s 753 mmHg 59%
    07:00 +3°C° 0 mm 3 m/s 753 mmHg 61%
    08:00 +5°C° 0 mm 3 m/s 753 mmHg 57%
    09:00 +7°C° 0 mm 3 m/s 753 mmHg 53%
    10:00 +9°C° 0 mm 3 m/s 753 mmHg 49%
    11:00 +10°C° 0 mm 2 m/s 752 mmHg 47%
    12:00 +12°C° 0 mm 2 m/s 751 mmHg 46%
    13:00 +13°C° 0 mm 2 m/s 751 mmHg 44%
    14:00 +13°C° 0 mm 2 m/s 750 mmHg 44%
    15:00 +13°C° 0 mm 2 m/s 750 mmHg 44%
    16:00 +13°C° 0 mm 2 m/s 749 mmHg 44%
    17:00 +12°C° 0 mm 1 m/s 749 mmHg 49%
    18:00 +10°C° 0 mm 1 m/s 749 mmHg 53%
    19:00 +8°C° 0 mm 0 m/s 748 mmHg 58%
    20:00 +8°C° 0 mm 1 m/s 748 mmHg 60%
    21:00 +8°C° 0 mm 1 m/s 748 mmHg 61%
    22:00 +7°C° 0 mm 1 m/s 748 mmHg 63%
    23:00 +7°C° 0 mm 1 m/s 747 mmHg 63%

    25 Março, Segunda-feira

    Tempo Temperatura Precipitação Vento Pressão Humidade
    00:00 +5°C° 0 mm 2 m/s 747 mmHg 63%
    01:00 +5°C° 0 mm 2 m/s 746 mmHg 63%
    02:00 +4°C° 0 mm 3 m/s 746 mmHg 65%
    03:00 +5°C° 0 mm 3 m/s 746 mmHg 67%
    04:00 +5°C° 0 mm 4 m/s 746 mmHg 70%
    05:00 +5°C° 0 mm 4 m/s 746 mmHg 70%
    06:00 +3°C° 0 mm 5 m/s 745 mmHg 70%
    07:00 +2°C° 0 mm 5 m/s 745 mmHg 70%
    08:00 +3°C° 0 mm 6 m/s 745 mmHg 67%
    09:00 +4°C° 0 mm 7 m/s 745 mmHg 64%
    10:00 +6°C° 0 mm 7 m/s 745 mmHg 61%
    11:00 +5°C° 0.1 mm 8 m/s 744 mmHg 63%
    12:00 +5°C° 0.1 mm 8 m/s 744 mmHg 66%
    13:00 +5°C° 0.1 mm 8 m/s 743 mmHg 69%
    14:00 +5°C° 0.4 mm 9 m/s 743 mmHg 66%
    15:00 +3°C° 0.4 mm 9 m/s 743 mmHg 63%
    16:00 +3°C° 0.4 mm 9 m/s 742 mmHg 60%
    17:00 +2°C° 0.1 mm 8 m/s 743 mmHg 63%
    18:00 +2°C° 0.1 mm 7 m/s 743 mmHg 65%
    19:00 +1°C° 0.1 mm 6 m/s 743 mmHg 67%
    20:00 0°C° 0 mm 7 m/s 743 mmHg 69%
    21:00 0°C° 0 mm 7 m/s 742 mmHg 70%
    22:00 -1°C° 0 mm 7 m/s 742 mmHg 71%
    23:00 -1°C° 0.1 mm 7 m/s 742 mmHg 71%
    Mostrar mais